Weather History for Wolf Point, MT

Change the Weather History Date:

Monday, January 14, 2013

  Actual Average Record
Temperature  
Mean Temperature -3 °F -  
Max Temperature 8 °F 24 °F 50 °F (2006)
Min Temperature -14 °F 1 °F -33 °F (2005)
Degree Days  
Heating Degree Days 68    
Cooling Degree Days 0    
Moisture  
Dew Point -4 °F    
Average Humidity 83    
Maximum Humidity 92    
Minimum Humidity 76    
Precipitation  
Precipitation T in 0.01 in 0.12 in (2011)
Month to date precipitation 0.05 0.18  
Year to date precipitation 0.05 0.18  
Sea Level Pressure  
Sea Level Pressure 30.21 in    
Wind  
Wind Speed 2 mph (WNW)    
Max Wind Speed 6 mph    
Max Gust Speed -    
Visibility 9 miles    
Events      
T = Trace of Precipitation, MM = Missing Value Source: NWS Daily Summary

Daily Weather History Graph

Daily Weather History Graph

Search for Another Location

Airport:

Trip Planner

Search our weather history database for the weather conditions in past years. The results will help you decide how hot, cold, wet, or windy it might be!

Date:

Astronomy

Jan. 14, 2013 Rise Set
Actual Time 7:48 AM MST 4:35 PM MST
Civil Twilight 7:12 AM MST 5:10 PM MST
Nautical Twilight 6:34 AM MST 5:49 PM MST
Astronomical Twilight 5:56 AM MST 6:26 PM MST
Moon 9:04 AM MST (1/14) 8:45 PM MST (1/14)
Length of Visible Light 9h 57m
Length of Day
8h 47m
Waxing Crescent, 12% of the Moon is Illuminated
Jan 14
Waxing Crescent
Jan 18
First Quarter
Jan 26
Full
Feb 3
Last Quarter
Feb 10
New

Hourly Weather History & Observations

Time (MST) Temp. Windchill Dew Point Humidity Pressure Visibility Wind Dir Wind Speed Gust Speed Precip Events Conditions
12:05 AM 1.4 °F - -2.2 °F 85% 30.16 in 9.0 mi Calm Calm - N/A   Overcast
12:38 AM 1.4 °F -9.9 °F -2.2 °F 85% 30.16 in 10.0 mi WSW 5.8 mph - N/A   Overcast
12:53 AM 1.0 °F -6.7 °F -2.9 °F 83% 30.31 in 10.0 mi West 3.5 mph - N/A   Overcast
1:53 AM -0.9 °F -12.7 °F -5.1 °F 83% 30.32 in 9.0 mi WSW 5.8 mph - N/A   Overcast
2:53 AM -2.9 °F -15.0 °F -7.1 °F 82% 30.34 in 10.0 mi WNW 5.8 mph - N/A   Clear
3:53 AM -6.0 °F - -9.0 °F 87% 30.33 in 10.0 mi Calm Calm - N/A   Overcast
4:53 AM -9.9 °F - -13.0 °F 86% 30.34 in 10.0 mi Calm Calm - N/A   Partly Cloudy
5:53 AM -11.9 °F - -16.1 °F 82% 30.33 in 10.0 mi Calm Calm - N/A   Overcast
6:53 AM -9.0 °F -22.3 °F -11.9 °F 87% 30.34 in 10.0 mi West 5.8 mph - N/A   Overcast
7:53 AM -5.1 °F -13.6 °F -9.0 °F 83% 30.34 in 8.0 mi NW 3.5 mph - N/A   Overcast
8:53 AM -4.0 °F - -7.1 °F 87% 30.32 in 7.0 mi Calm Calm - N/A   Overcast
9:53 AM -0.9 °F - -4.0 °F 87% 30.29 in 9.0 mi Calm Calm - N/A   Overcast
10:26 AM -0.4 °F - -2.2 °F 92% 30.12 in 2.0 mi Calm Calm - N/A   Overcast
10:37 AM -0.4 °F - -4.0 °F 85% 30.12 in 4.0 mi Calm Calm - N/A   Overcast
10:53 AM -0.0 °F -7.9 °F -4.0 °F 83% 30.26 in 6.0 mi East 3.5 mph - 0.00 in   Overcast
11:53 AM 1.4 °F -9.9 °F -2.2 °F 85% 30.06 in 9.0 mi ENE 5.8 mph - N/A   Overcast
12:53 PM 8.1 °F - 1.9 °F 76% 30.19 in 10.0 mi Calm Calm - N/A   Mostly Cloudy
1:53 PM 6.1 °F -0.9 °F 1.0 °F 80% 30.18 in 10.0 mi ESE 3.5 mph - N/A   Clear
2:53 PM 8.1 °F 1.4 °F 1.9 °F 76% 30.17 in 10.0 mi ENE 3.5 mph - N/A   Overcast
3:53 PM 8.1 °F - 1.9 °F 76% 30.18 in 10.0 mi Calm Calm - N/A   Mostly Cloudy
4:53 PM 6.1 °F - 1.0 °F 80% 30.18 in 10.0 mi Calm Calm - N/A   Mostly Cloudy
5:53 PM 3.0 °F - -0.9 °F 84% 30.17 in 9.0 mi Calm Calm - N/A   Partly Cloudy
6:53 PM -0.9 °F - -5.1 °F 83% 30.17 in 10.0 mi Calm Calm - N/A   Overcast
7:53 PM 1.0 °F - -2.9 °F 83% 30.14 in 10.0 mi Calm Calm - N/A   Overcast
8:53 PM 3.0 °F - -0.9 °F 84% 30.12 in 10.0 mi Calm Calm - N/A   Overcast
9:53 PM 5.0 °F - -0.0 °F 80% 30.09 in 10.0 mi Calm Calm - N/A   Overcast
10:53 PM 6.1 °F - 1.9 °F 83% 30.08 in 10.0 mi Calm Calm - N/A   Overcast
11:53 PM 7.0 °F - 1.9 °F 80% 30.06 in 10.0 mi Calm Calm - N/A   Overcast